owner,sensor,date,latitude,longitude,vertical_datum,wind_speed,wind_to_direction,wind_speed_of_gust,qcFlag 
TCOON,ioos:station:TCOON:003:1,2010-12-01T00:00:00Z,26.8015,-97.4706,0.0,4.9,357.0,5.6,'11111222,11111222,11111222' 
TCOON,ioos:station:TCOON:003:1,2010-12-01T01:00:00Z,26.8015,-97.4706,0.0,3.6,3.0,4.5,'11111222,11111222,11111222' 
TCOON,ioos:station:TCOON:003:1,2010-12-01T02:00:00Z,26.8015,-97.4706,0.0,3.3,350.0,3.8,'11111222,11111222,11111222' 
TCOON,ioos:station:TCOON:003:1,2010-12-01T03:00:00Z,26.8015,-97.4706,0.0,1.9,354.0,2.3,'11111222,11111222,11111222' 
TCOON,ioos:station:TCOON:003:1,2010-12-01T04:00:00Z,26.8015,-97.4706,0.0,1.8,345.0,2.0,'11111222,11111222,11111222' 
TCOON,ioos:station:TCOON:003:1,2010-12-01T05:00:00Z,26.8015,-97.4706,0.0,1.6,300.0,1.9,'11111222,11111222,11111222' 
TCOON,ioos:station:TCOON:003:1,2010-12-01T06:00:00Z,26.8015,-97.4706,0.0,3.3,284.0,3.8,'11111222,11111222,11111222' 
TCOON,ioos:station:TCOON:003:1,2010-12-01T07:00:00Z,26.8015,-97.4706,0.0,3.4,289.0,4.3,'11111222,11111222,11111222' 
TCOON,ioos:station:TCOON:003:1,2010-12-01T08:00:00Z,26.8015,-97.4706,0.0,4.2,295.0,4.8,'11111222,11111222,11111222' 
TCOON,ioos:station:TCOON:003:1,2010-12-01T09:00:00Z,26.8015,-97.4706,0.0,3.8,304.0,4.3,'11111222,11111222,11111222' 
TCOON,ioos:station:TCOON:003:1,2010-12-01T10:00:00Z,26.8015,-97.4706,0.0,3.4,301.0,4.0,'11111222,11111222,11111222' 
TCOON,ioos:station:TCOON:003:1,2010-12-01T11:00:00Z,26.8015,-97.4706,0.0,3.4,280.0,4.1,'11111222,11111222,11111222' 
TCOON,ioos:station:TCOON:003:1,2010-12-01T12:00:00Z,26.8015,-97.4706,0.0,3.2,283.0,3.8,'11111222,11111222,11111222' 
TCOON,ioos:station:TCOON:003:1,2010-12-01T13:00:00Z,26.8015,-97.4706,0.0,3.2,286.0,3.6,'11111222,11111222,11111222' 
TCOON,ioos:station:TCOON:003:1,2010-12-01T14:00:00Z,26.8015,-97.4706,0.0,2.9,297.0,3.3,'11111222,11111222,11111222' 
TCOON,ioos:station:TCOON:003:1,2010-12-01T15:00:00Z,26.8015,-97.4706,0.0,2.2,326.0,2.4,'11111222,11111222,11111222' 
TCOON,ioos:station:TCOON:003:1,2010-12-01T16:00:00Z,26.8015,-97.4706,0.0,1.7,333.0,1.9,'11111222,11111222,11111222' 
TCOON,ioos:station:TCOON:003:1,2010-12-01T17:00:00Z,26.8015,-97.4706,0.0,1.6,152.0,1.9,'11111222,11111222,11111222' 
TCOON,ioos:station:TCOON:003:1,2010-12-01T18:00:00Z,26.8015,-97.4706,0.0,2.6,154.0,3.0,'11111222,11111222,11111222' 
TCOON,ioos:station:TCOON:003:1,2010-12-01T19:00:00Z,26.8015,-97.4706,0.0,4.2,138.0,4.8,'11111222,11111222,11111222' 
TCOON,ioos:station:TCOON:003:1,2010-12-01T20:00:00Z,26.8015,-97.4706,0.0,4.8,154.0,5.4,'11111222,11111222,11111222' 
TCOON,ioos:station:TCOON:003:1,2010-12-01T21:00:00Z,26.8015,-97.4706,0.0,5.3,136.0,6.0,'11111222,11111222,11111222' 
TCOON,ioos:station:TCOON:003:1,2010-12-01T22:00:00Z,26.8015,-97.4706,0.0,5.9,122.0,7.0,'11111222,11111222,11111222' 
TCOON,ioos:station:TCOON:003:1,2010-12-01T23:00:00Z,26.8015,-97.4706,0.0,5.3,121.0,6.2,'11111222,11111222,11111222' 
TCOON,ioos:station:TCOON:003:1,2010-12-02T00:00:00Z,26.8015,-97.4706,0.0,4.0,121.0,4.5,'11111222,11111222,11111222' 
TCOON,ioos:station:TCOON:003:1,2010-12-02T01:00:00Z,26.8015,-97.4706,0.0,4.9,141.0,5.5,'11111222,11111222,11111222' 
TCOON,ioos:station:TCOON:003:1,2010-12-02T02:00:00Z,26.8015,-97.4706,0.0,5.5,148.0,6.4,'11111222,11111222,11111222' 
TCOON,ioos:station:TCOON:003:1,2010-12-02T03:00:00Z,26.8015,-97.4706,0.0,5.3,146.0,6.1,'11111222,11111222,11111222' 
TCOON,ioos:station:TCOON:003:1,2010-12-02T04:00:00Z,26.8015,-97.4706,0.0,4.6,144.0,5.6,'11111222,11111222,11111222' 
TCOON,ioos:station:TCOON:003:1,2010-12-02T05:00:00Z,26.8015,-97.4706,0.0,5.1,150.0,5.6,'11111222,11111222,11111222' 
TCOON,ioos:station:TCOON:003:1,2010-12-02T06:00:00Z,26.8015,-97.4706,0.0,5.4,158.0,6.2,'11111222,11111222,11111222' 
TCOON,ioos:station:TCOON:003:1,2010-12-02T07:00:00Z,26.8015,-97.4706,0.0,2.3,195.0,2.6,'11111222,11111222,11111222' 
TCOON,ioos:station:TCOON:003:1,2010-12-02T08:00:00Z,26.8015,-97.4706,0.0,1.0,192.0,1.3,'11111222,11111222,11111222' 
TCOON,ioos:station:TCOON:003:1,2010-12-02T09:00:00Z,26.8015,-97.4706,0.0,0.0,199.0,0.4,'11111222,11111222,11111222' 
TCOON,ioos:station:TCOON:003:1,2010-12-02T10:00:00Z,26.8015,-97.4706,0.0,0.3,129.0,0.4,'11111222,11111222,11111222' 
TCOON,ioos:station:TCOON:003:1,2010-12-02T11:00:00Z,26.8015,-97.4706,0.0,0.4,127.0,0.5,'11111222,11111222,11111222' 
TCOON,ioos:station:TCOON:003:1,2010-12-02T12:00:00Z,26.8015,-97.4706,0.0,1.4,42.0,1.7,'11111222,11111222,11111222' 
TCOON,ioos:station:TCOON:003:1,2010-12-02T13:00:00Z,26.8015,-97.4706,0.0,1.6,72.0,1.8,'11111222,11111222,11111222' 
TCOON,ioos:station:TCOON:003:1,2010-12-02T14:00:00Z,26.8015,-97.4706,0.0,0.9,114.0,1.1,'11111222,11111222,11111222' 
TCOON,ioos:station:TCOON:003:1,2010-12-02T15:00:00Z,26.8015,-97.4706,0.0,2.1,141.0,2.3,'11111222,11111222,11111222' 
TCOON,ioos:station:TCOON:003:1,2010-12-02T16:00:00Z,26.8015,-97.4706,0.0,3.7,148.0,4.2,'11111222,11111222,11111222' 
TCOON,ioos:station:TCOON:003:1,2010-12-02T17:00:00Z,26.8015,-97.4706,0.0,4.7,141.0,5.5,'11111222,11111222,11111222' 
TCOON,ioos:station:TCOON:003:1,2010-12-02T18:00:00Z,26.8015,-97.4706,0.0,5.3,149.0,6.0,'11111222,11111222,11111222' 
TCOON,ioos:station:TCOON:003:1,2010-12-02T19:00:00Z,26.8015,-97.4706,0.0,5.4,154.0,6.0,'11111222,11111222,11111222' 
TCOON,ioos:station:TCOON:003:1,2010-12-02T21:00:00Z,26.8015,-97.4706,0.0,6.1,132.0,7.2,'11111222,11111222,11111222' 
TCOON,ioos:station:TCOON:003:1,2010-12-02T22:00:00Z,26.8015,-97.4706,0.0,6.9,128.0,7.9,'11111222,11111222,11111222' 
TCOON,ioos:station:TCOON:003:1,2010-12-02T23:00:00Z,26.8015,-97.4706,0.0,5.4,129.0,5.9,'11111222,11111222,11111222' 
TCOON,ioos:station:TCOON:003:1,2010-12-03T00:00:00Z,26.8015,-97.4706,0.0,4.4,131.0,5.2,'11111222,11111222,11111222' 
TCOON,ioos:station:TCOON:003:1,2010-12-03T01:00:00Z,26.8015,-97.4706,0.0,5.2,138.0,5.7,'11111222,11111222,11111222' 
TCOON,ioos:station:TCOON:003:1,2010-12-03T02:00:00Z,26.8015,-97.4706,0.0,5.0,147.0,5.6,'11111222,11111222,11111222' 
TCOON,ioos:station:TCOON:003:1,2010-12-03T03:00:00Z,26.8015,-97.4706,0.0,3.3,171.0,3.6,'11111222,11111222,11111222' 
TCOON,ioos:station:TCOON:003:1,2010-12-03T04:00:00Z,26.8015,-97.4706,0.0,2.3,179.0,2.5,'11111222,11111222,11111222' 
TCOON,ioos:station:TCOON:003:1,2010-12-03T05:00:00Z,26.8015,-97.4706,0.0,2.4,170.0,2.5,'11111222,11111222,11111222' 
TCOON,ioos:station:TCOON:003:1,2010-12-03T06:00:00Z,26.8015,-97.4706,0.0,1.9,174.0,2.0,'11111222,11111222,11111222' 
TCOON,ioos:station:TCOON:003:1,2010-12-03T07:00:00Z,26.8015,-97.4706,0.0,1.5,165.0,1.6,'11111222,11111222,11111222' 
TCOON,ioos:station:TCOON:003:1,2010-12-03T08:00:00Z,26.8015,-97.4706,0.0,1.8,171.0,1.9,'11111222,11111222,11111222' 
TCOON,ioos:station:TCOON:003:1,2010-12-03T09:00:00Z,26.8015,-97.4706,0.0,1.0,144.0,1.2,'11111222,11111222,11111222' 
TCOON,ioos:station:TCOON:003:1,2010-12-03T10:00:00Z,26.8015,-97.4706,0.0,1.1,131.0,1.1,'11111222,11111222,11111222' 
TCOON,ioos:station:TCOON:003:1,2010-12-03T11:00:00Z,26.8015,-97.4706,0.0,1.7,89.0,1.9,'11111222,11111222,11111222' 
TCOON,ioos:station:TCOON:003:1,2010-12-03T12:00:00Z,26.8015,-97.4706,0.0,0.0,124.0,99.0,'11111222,11111222,11144222' 
TCOON,ioos:station:TCOON:003:1,2010-12-03T13:00:00Z,26.8015,-97.4706,0.0,0.0,313.0,99.0,'11111222,11111222,11144222' 
TCOON,ioos:station:TCOON:003:1,2010-12-03T14:00:00Z,26.8015,-97.4706,0.0,0.3,339.0,0.5,'11111222,11111222,11111222' 
TCOON,ioos:station:TCOON:003:1,2010-12-03T15:00:00Z,26.8015,-97.4706,0.0,2.3,112.0,2.6,'11111222,11111222,11111222' 
TCOON,ioos:station:TCOON:003:1,2010-12-03T16:00:00Z,26.8015,-97.4706,0.0,2.7,139.0,3.1,'11111222,11111222,11111222' 
TCOON,ioos:station:TCOON:003:1,2010-12-03T17:00:00Z,26.8015,-97.4706,0.0,4.5,142.0,5.3,'11111222,11111222,11111222' 
TCOON,ioos:station:TCOON:003:1,2010-12-03T18:00:00Z,26.8015,-97.4706,0.0,5.1,148.0,5.6,'11111222,11111222,11111222' 
TCOON,ioos:station:TCOON:003:1,2010-12-03T19:00:00Z,26.8015,-97.4706,0.0,4.5,130.0,5.4,'11111222,11111222,11111222' 
TCOON,ioos:station:TCOON:003:1,2010-12-03T20:00:00Z,26.8015,-97.4706,0.0,7.0,121.0,8.9,'11111222,11111222,11111222' 
TCOON,ioos:station:TCOON:003:1,2010-12-03T21:00:00Z,26.8015,-97.4706,0.0,8.0,130.0,10.0,'11111222,11111222,11111222' 
TCOON,ioos:station:TCOON:003:1,2010-12-03T22:00:00Z,26.8015,-97.4706,0.0,8.4,135.0,10.3,'11111222,11111222,11111222' 
TCOON,ioos:station:TCOON:003:1,2010-12-03T23:00:00Z,26.8015,-97.4706,0.0,7.7,137.0,8.7,'11111222,11111222,11111222' 
TCOON,ioos:station:TCOON:003:1,2010-12-04T00:00:00Z,26.8015,-97.4706,0.0,7.2,139.0,8.6,'11111222,11111222,11111222' 
TCOON,ioos:station:TCOON:003:1,2010-12-04T01:00:00Z,26.8015,-97.4706,0.0,6.7,143.0,7.5,'11111222,11111222,11111222' 
TCOON,ioos:station:TCOON:003:1,2010-12-04T02:00:00Z,26.8015,-97.4706,0.0,5.8,150.0,6.5,'11111222,11111222,11111222' 
TCOON,ioos:station:TCOON:003:1,2010-12-04T03:00:00Z,26.8015,-97.4706,0.0,4.1,162.0,4.6,'11111222,11111222,11111222' 
TCOON,ioos:station:TCOON:003:1,2010-12-04T04:00:00Z,26.8015,-97.4706,0.0,3.9,161.0,4.2,'11111222,11111222,11111222' 
TCOON,ioos:station:TCOON:003:1,2010-12-04T05:00:00Z,26.8015,-97.4706,0.0,4.6,165.0,5.2,'11111222,11111222,11111222' 
TCOON,ioos:station:TCOON:003:1,2010-12-04T06:00:00Z,26.8015,-97.4706,0.0,3.8,180.0,4.1,'11111222,11111222,11111222' 
TCOON,ioos:station:TCOON:003:1,2010-12-04T07:00:00Z,26.8015,-97.4706,0.0,4.3,172.0,4.9,'11111222,11111222,11111222' 
TCOON,ioos:station:TCOON:003:1,2010-12-04T08:00:00Z,26.8015,-97.4706,0.0,4.1,164.0,4.8,'11111222,11111222,11111222' 
TCOON,ioos:station:TCOON:003:1,2010-12-04T09:00:00Z,26.8015,-97.4706,0.0,4.4,162.0,5.1,'11111222,11111222,11111222' 
TCOON,ioos:station:TCOON:003:1,2010-12-04T10:00:00Z,26.8015,-97.4706,0.0,4.4,175.0,4.9,'11111222,11111222,11111222' 
TCOON,ioos:station:TCOON:003:1,2010-12-04T11:00:00Z,26.8015,-97.4706,0.0,5.2,166.0,5.8,'11111222,11111222,11111222' 
TCOON,ioos:station:TCOON:003:1,2010-12-04T12:00:00Z,26.8015,-97.4706,0.0,4.6,177.0,5.0,'11111222,11111222,11111222' 
TCOON,ioos:station:TCOON:003:1,2010-12-04T13:00:00Z,26.8015,-97.4706,0.0,4.6,182.0,5.2,'11111222,11111222,11111222' 
TCOON,ioos:station:TCOON:003:1,2010-12-04T14:00:00Z,26.8015,-97.4706,0.0,6.8,185.0,8.7,'11111222,11111222,11111222' 
TCOON,ioos:station:TCOON:003:1,2010-12-04T15:00:00Z,26.8015,-97.4706,0.0,7.2,175.0,8.8,'11111222,11111222,11111222' 
TCOON,ioos:station:TCOON:003:1,2010-12-04T16:00:00Z,26.8015,-97.4706,0.0,5.0,146.0,5.7,'11111222,11111222,11111222' 
TCOON,ioos:station:TCOON:003:1,2010-12-04T17:00:00Z,26.8015,-97.4706,0.0,5.3,134.0,5.8,'11111222,11111222,11111222' 
TCOON,ioos:station:TCOON:003:1,2010-12-04T18:00:00Z,26.8015,-97.4706,0.0,6.2,145.0,7.0,'11111222,11111222,11111222' 
TCOON,ioos:station:TCOON:003:1,2010-12-04T19:00:00Z,26.8015,-97.4706,0.0,6.3,136.0,7.4,'11111222,11111222,11111222' 
TCOON,ioos:station:TCOON:003:1,2010-12-04T20:00:00Z,26.8015,-97.4706,0.0,7.1,122.0,8.4,'11111222,11111222,11111222' 
TCOON,ioos:station:TCOON:003:1,2010-12-04T21:00:00Z,26.8015,-97.4706,0.0,8.4,132.0,9.6,'11111222,11111222,11111222' 
TCOON,ioos:station:TCOON:003:1,2010-12-04T22:00:00Z,26.8015,-97.4706,0.0,8.4,140.0,10.0,'11111222,11111222,11111222' 
TCOON,ioos:station:TCOON:003:1,2010-12-04T23:00:00Z,26.8015,-97.4706,0.0,8.7,146.0,10.7,'11111222,11111222,11111222' 
TCOON,ioos:station:TCOON:003:1,2010-12-05T00:00:00Z,26.8015,-97.4706,0.0,7.1,145.0,8.2,'11111222,11111222,11111222' 
TCOON,ioos:station:TCOON:003:1,2010-12-05T01:00:00Z,26.8015,-97.4706,0.0,5.0,132.0,5.8,'11111222,11111222,11111222' 
TCOON,ioos:station:TCOON:003:1,2010-12-05T02:00:00Z,26.8015,-97.4706,0.0,3.9,136.0,4.3,'11111222,11111222,11111222' 
TCOON,ioos:station:TCOON:003:1,2010-12-05T03:00:00Z,26.8015,-97.4706,0.0,3.9,133.0,4.6,'11111222,11111222,11111222' 
TCOON,ioos:station:TCOON:003:1,2010-12-05T04:00:00Z,26.8015,-97.4706,0.0,3.8,147.0,4.2,'11111222,11111222,11111222' 
TCOON,ioos:station:TCOON:003:1,2010-12-05T05:00:00Z,26.8015,-97.4706,0.0,3.3,143.0,4.0,'11111222,11111222,11111222' 
TCOON,ioos:station:TCOON:003:1,2010-12-05T06:00:00Z,26.8015,-97.4706,0.0,1.9,120.0,2.1,'11111222,11111222,11111222' 
TCOON,ioos:station:TCOON:003:1,2010-12-05T07:00:00Z,26.8015,-97.4706,0.0,1.5,70.0,1.6,'11111222,11111222,11111222' 
TCOON,ioos:station:TCOON:003:1,2010-12-05T08:00:00Z,26.8015,-97.4706,0.0,0.7,143.0,0.8,'11111222,11111222,11111222' 
TCOON,ioos:station:TCOON:003:1,2010-12-05T09:00:00Z,26.8015,-97.4706,0.0,2.9,10.0,3.3,'11111222,11111222,11111222' 
TCOON,ioos:station:TCOON:003:1,2010-12-05T10:00:00Z,26.8015,-97.4706,0.0,8.5,2.0,9.9,'11111222,11111222,11111222' 
TCOON,ioos:station:TCOON:003:1,2010-12-05T11:00:00Z,26.8015,-97.4706,0.0,8.9,360.0,10.6,'11111222,11144222,11111222' 
TCOON,ioos:station:TCOON:003:1,2010-12-05T12:00:00Z,26.8015,-97.4706,0.0,9.6,2.0,11.8,'11111222,11111222,11111222' 
TCOON,ioos:station:TCOON:003:1,2010-12-05T13:00:00Z,26.8015,-97.4706,0.0,8.7,1.0,10.3,'11111222,11111222,11111222' 
TCOON,ioos:station:TCOON:003:1,2010-12-05T14:00:00Z,26.8015,-97.4706,0.0,8.3,355.0,9.6,'11111222,11111222,11111222' 
TCOON,ioos:station:TCOON:003:1,2010-12-05T15:00:00Z,26.8015,-97.4706,0.0,10.7,357.0,12.5,'11111222,11111222,11111222' 
TCOON,ioos:station:TCOON:003:1,2010-12-05T16:00:00Z,26.8015,-97.4706,0.0,10.3,7.0,12.2,'11111222,11111222,11111222' 
TCOON,ioos:station:TCOON:003:1,2010-12-05T17:00:00Z,26.8015,-97.4706,0.0,9.1,350.0,10.4,'11111222,11111222,11111222' 
TCOON,ioos:station:TCOON:003:1,2010-12-05T18:00:00Z,26.8015,-97.4706,0.0,10.1,356.0,11.2,'11111222,11111222,11111222' 
TCOON,ioos:station:TCOON:003:1,2010-12-05T19:00:00Z,26.8015,-97.4706,0.0,9.3,355.0,10.9,'11111222,11111222,11111222' 
TCOON,ioos:station:TCOON:003:1,2010-12-05T20:00:00Z,26.8015,-97.4706,0.0,8.4,1.0,10.6,'11111222,11111222,11111222' 
TCOON,ioos:station:TCOON:003:1,2010-12-05T21:00:00Z,26.8015,-97.4706,0.0,9.8,359.0,10.9,'11111222,11111222,11111222' 
TCOON,ioos:station:TCOON:003:1,2010-12-05T22:00:00Z,26.8015,-97.4706,0.0,9.7,5.0,11.9,'11111222,11111222,11111222' 
TCOON,ioos:station:TCOON:003:1,2010-12-05T23:00:00Z,26.8015,-97.4706,0.0,9.5,2.0,11.3,'11111222,11111222,11111222' 
TCOON,ioos:station:TCOON:003:1,2010-12-06T00:00:00Z,26.8015,-97.4706,0.0,8.9,2.0,11.0,'11111222,11111222,11111222' 
TCOON,ioos:station:TCOON:003:1,2010-12-06T01:00:00Z,26.8015,-97.4706,0.0,8.5,353.0,10.2,'11111222,11111222,11111222' 
TCOON,ioos:station:TCOON:003:1,2010-12-06T02:00:00Z,26.8015,-97.4706,0.0,8.0,355.0,9.2,'11111222,11111222,11111222' 
TCOON,ioos:station:TCOON:003:1,2010-12-06T03:00:00Z,26.8015,-97.4706,0.0,7.3,346.0,8.1,'11111222,11111222,11111222' 
TCOON,ioos:station:TCOON:003:1,2010-12-06T04:00:00Z,26.8015,-97.4706,0.0,6.5,338.0,7.1,'11111222,11111222,11111222' 
TCOON,ioos:station:TCOON:003:1,2010-12-06T05:00:00Z,26.8015,-97.4706,0.0,8.6,349.0,10.2,'11111222,11111222,11111222' 
TCOON,ioos:station:TCOON:003:1,2010-12-06T07:00:00Z,26.8015,-97.4706,0.0,7.2,338.0,8.2,'11111222,11111222,11111222' 
TCOON,ioos:station:TCOON:003:1,2010-12-06T08:00:00Z,26.8015,-97.4706,0.0,6.8,329.0,7.6,'11111222,11111222,11111222' 
TCOON,ioos:station:TCOON:003:1,2010-12-06T09:00:00Z,26.8015,-97.4706,0.0,8.4,340.0,9.5,'11111222,11111222,11111222' 
TCOON,ioos:station:TCOON:003:1,2010-12-06T10:00:00Z,26.8015,-97.4706,0.0,9.3,345.0,11.1,'11111222,11111222,11111222' 
TCOON,ioos:station:TCOON:003:1,2010-12-06T11:00:00Z,26.8015,-97.4706,0.0,9.3,346.0,11.0,'11111222,11111222,11111222' 
TCOON,ioos:station:TCOON:003:1,2010-12-06T12:00:00Z,26.8015,-97.4706,0.0,9.5,346.0,11.3,'11111222,11111222,11111222' 
TCOON,ioos:station:TCOON:003:1,2010-12-06T13:00:00Z,26.8015,-97.4706,0.0,11.8,357.0,13.4,'11111222,11111222,11111222' 
TCOON,ioos:station:TCOON:003:1,2010-12-06T14:00:00Z,26.8015,-97.4706,0.0,10.7,356.0,12.3,'11111222,11111222,11111222' 
TCOON,ioos:station:TCOON:003:1,2010-12-06T15:00:00Z,26.8015,-97.4706,0.0,8.4,352.0,9.7,'11111222,11111222,11111222' 
TCOON,ioos:station:TCOON:003:1,2010-12-06T16:00:00Z,26.8015,-97.4706,0.0,8.6,353.0,9.8,'11111222,11111222,11111222' 
TCOON,ioos:station:TCOON:003:1,2010-12-06T17:00:00Z,26.8015,-97.4706,0.0,9.0,357.0,10.3,'11111222,11111222,11111222' 
TCOON,ioos:station:TCOON:003:1,2010-12-06T18:00:00Z,26.8015,-97.4706,0.0,8.8,2.0,10.2,'11111222,11111222,11111222' 
TCOON,ioos:station:TCOON:003:1,2010-12-06T19:00:00Z,26.8015,-97.4706,0.0,7.7,3.0,10.4,'11111222,11111222,11111222' 
TCOON,ioos:station:TCOON:003:1,2010-12-06T20:00:00Z,26.8015,-97.4706,0.0,7.5,3.0,9.9,'11111222,11111222,11111222' 
TCOON,ioos:station:TCOON:003:1,2010-12-06T21:00:00Z,26.8015,-97.4706,0.0,6.1,7.0,7.6,'11111222,11111222,11111222' 
TCOON,ioos:station:TCOON:003:1,2010-12-06T22:00:00Z,26.8015,-97.4706,0.0,6.1,1.0,7.8,'11111222,11111222,11111222' 
TCOON,ioos:station:TCOON:003:1,2010-12-06T23:00:00Z,26.8015,-97.4706,0.0,6.3,353.0,6.9,'11111222,11111222,11111222' 
TCOON,ioos:station:TCOON:003:1,2010-12-07T00:00:00Z,26.8015,-97.4706,0.0,5.4,346.0,6.1,'11111222,11111222,11111222' 
TCOON,ioos:station:TCOON:003:1,2010-12-07T01:00:00Z,26.8015,-97.4706,0.0,4.6,338.0,5.2,'11111222,11111222,11111222' 
TCOON,ioos:station:TCOON:003:1,2010-12-07T02:00:00Z,26.8015,-97.4706,0.0,4.8,333.0,5.5,'11111222,11111222,11111222' 
TCOON,ioos:station:TCOON:003:1,2010-12-07T03:00:00Z,26.8015,-97.4706,0.0,4.3,322.0,5.0,'11111222,11111222,11111222' 
TCOON,ioos:station:TCOON:003:1,2010-12-07T04:00:00Z,26.8015,-97.4706,0.0,4.6,315.0,5.3,'11111222,11111222,11111222' 
TCOON,ioos:station:TCOON:003:1,2010-12-07T05:00:00Z,26.8015,-97.4706,0.0,3.9,309.0,4.4,'11111222,11111222,11111222' 
TCOON,ioos:station:TCOON:003:1,2010-12-07T06:00:00Z,26.8015,-97.4706,0.0,3.8,314.0,4.4,'11111222,11111222,11111222' 
TCOON,ioos:station:TCOON:003:1,2010-12-07T07:00:00Z,26.8015,-97.4706,0.0,2.9,307.0,3.2,'11111222,11111222,11111222' 
TCOON,ioos:station:TCOON:003:1,2010-12-07T08:00:00Z,26.8015,-97.4706,0.0,3.7,343.0,4.1,'11111222,11111222,11111222' 
TCOON,ioos:station:TCOON:003:1,2010-12-07T09:00:00Z,26.8015,-97.4706,0.0,2.5,7.0,2.8,'11111222,11111222,11111222' 
TCOON,ioos:station:TCOON:003:1,2010-12-07T10:00:00Z,26.8015,-97.4706,0.0,2.6,27.0,2.9,'11111222,11111222,11111222' 
TCOON,ioos:station:TCOON:003:1,2010-12-07T11:00:00Z,26.8015,-97.4706,0.0,2.0,38.0,2.1,'11111222,11111222,11111222' 
TCOON,ioos:station:TCOON:003:1,2010-12-07T12:00:00Z,26.8015,-97.4706,0.0,1.1,127.0,1.4,'11111222,11111222,11111222' 
TCOON,ioos:station:TCOON:003:1,2010-12-07T13:00:00Z,26.8015,-97.4706,0.0,0.0,131.0,99.0,'11111222,11111222,11144222' 
TCOON,ioos:station:TCOON:003:1,2010-12-07T14:00:00Z,26.8015,-97.4706,0.0,2.9,131.0,3.5,'11111222,11111222,11111222' 
TCOON,ioos:station:TCOON:003:1,2010-12-07T15:00:00Z,26.8015,-97.4706,0.0,6.8,127.0,8.7,'11111222,11111222,11111222' 
TCOON,ioos:station:TCOON:003:1,2010-12-07T16:00:00Z,26.8015,-97.4706,0.0,7.1,136.0,8.3,'11111222,11111222,11111222' 
TCOON,ioos:station:TCOON:003:1,2010-12-07T17:00:00Z,26.8015,-97.4706,0.0,6.5,134.0,7.6,'11111222,11111222,11111222' 
TCOON,ioos:station:TCOON:003:1,2010-12-07T18:00:00Z,26.8015,-97.4706,0.0,7.1,138.0,8.6,'11111222,11111222,11111222' 
TCOON,ioos:station:TCOON:003:1,2010-12-07T19:00:00Z,26.8015,-97.4706,0.0,6.9,138.0,8.4,'11111222,11111222,11111222' 
TCOON,ioos:station:TCOON:003:1,2010-12-07T20:00:00Z,26.8015,-97.4706,0.0,7.0,152.0,8.0,'11111222,11111222,11111222' 
TCOON,ioos:station:TCOON:003:1,2010-12-07T21:00:00Z,26.8015,-97.4706,0.0,7.2,153.0,8.5,'11111222,11111222,11111222' 
TCOON,ioos:station:TCOON:003:1,2010-12-07T22:00:00Z,26.8015,-97.4706,0.0,8.1,142.0,9.2,'11111222,11111222,11111222' 
TCOON,ioos:station:TCOON:003:1,2010-12-07T23:00:00Z,26.8015,-97.4706,0.0,7.2,130.0,8.5,'11111222,11111222,11111222' 
TCOON,ioos:station:TCOON:003:1,2010-12-08T00:00:00Z,26.8015,-97.4706,0.0,5.1,163.0,5.6,'11111222,11111222,11111222' 
TCOON,ioos:station:TCOON:003:1,2010-12-08T01:00:00Z,26.8015,-97.4706,0.0,2.4,149.0,2.6,'11111222,11111222,11111222' 
TCOON,ioos:station:TCOON:003:1,2010-12-08T02:00:00Z,26.8015,-97.4706,0.0,2.9,168.0,3.4,'11111222,11111222,11111222' 
TCOON,ioos:station:TCOON:003:1,2010-12-08T03:00:00Z,26.8015,-97.4706,0.0,1.8,153.0,1.9,'11111222,11111222,11111222' 
TCOON,ioos:station:TCOON:003:1,2010-12-08T04:00:00Z,26.8015,-97.4706,0.0,1.8,245.0,1.8,'11111222,11111222,11111222' 
TCOON,ioos:station:TCOON:003:1,2010-12-08T05:00:00Z,26.8015,-97.4706,0.0,2.1,310.0,2.3,'11111222,11111222,11111222' 
TCOON,ioos:station:TCOON:003:1,2010-12-08T06:00:00Z,26.8015,-97.4706,0.0,3.8,317.0,4.2,'11111222,11111222,11111222' 
TCOON,ioos:station:TCOON:003:1,2010-12-08T07:00:00Z,26.8015,-97.4706,0.0,4.7,291.0,5.2,'11111222,11111222,11111222' 
TCOON,ioos:station:TCOON:003:1,2010-12-08T08:00:00Z,26.8015,-97.4706,0.0,5.9,301.0,6.7,'11111222,11111222,11111222' 
TCOON,ioos:station:TCOON:003:1,2010-12-08T09:00:00Z,26.8015,-97.4706,0.0,7.5,306.0,8.7,'11111222,11111222,11111222' 
TCOON,ioos:station:TCOON:003:1,2010-12-08T10:00:00Z,26.8015,-97.4706,0.0,6.9,310.0,7.9,'11111222,11111222,11111222' 
TCOON,ioos:station:TCOON:003:1,2010-12-08T11:00:00Z,26.8015,-97.4706,0.0,8.7,319.0,10.8,'11111222,11111222,11111222' 
TCOON,ioos:station:TCOON:003:1,2010-12-08T12:00:00Z,26.8015,-97.4706,0.0,10.1,327.0,11.4,'11111222,11111222,11111222' 
TCOON,ioos:station:TCOON:003:1,2010-12-08T13:00:00Z,26.8015,-97.4706,0.0,11.2,323.0,12.9,'11111222,11111222,11111222' 
TCOON,ioos:station:TCOON:003:1,2010-12-08T14:00:00Z,26.8015,-97.4706,0.0,12.6,327.0,15.3,'11111222,11111222,11111222' 
TCOON,ioos:station:TCOON:003:1,2010-12-08T15:00:00Z,26.8015,-97.4706,0.0,13.0,346.0,15.8,'11111222,11111222,11111222' 
TCOON,ioos:station:TCOON:003:1,2010-12-08T16:00:00Z,26.8015,-97.4706,0.0,13.8,352.0,16.0,'11111222,11111222,11111222' 
TCOON,ioos:station:TCOON:003:1,2010-12-08T17:00:00Z,26.8015,-97.4706,0.0,11.9,356.0,15.5,'11111222,11111222,11111222' 
TCOON,ioos:station:TCOON:003:1,2010-12-08T18:00:00Z,26.8015,-97.4706,0.0,11.8,348.0,13.4,'11111222,11111222,11111222' 
TCOON,ioos:station:TCOON:003:1,2010-12-08T19:00:00Z,26.8015,-97.4706,0.0,9.4,3.0,12.8,'11111222,11111222,11111222' 
TCOON,ioos:station:TCOON:003:1,2010-12-08T20:00:00Z,26.8015,-97.4706,0.0,8.8,5.0,10.8,'11111222,11111222,11111222' 
TCOON,ioos:station:TCOON:003:1,2010-12-08T21:00:00Z,26.8015,-97.4706,0.0,7.7,11.0,9.2,'11111222,11111222,11111222' 
TCOON,ioos:station:TCOON:003:1,2010-12-08T22:00:00Z,26.8015,-97.4706,0.0,7.0,18.0,8.0,'11111222,11111222,11111222' 
TCOON,ioos:station:TCOON:003:1,2010-12-08T23:00:00Z,26.8015,-97.4706,0.0,5.1,16.0,6.2,'11111222,11111222,11111222' 
TCOON,ioos:station:TCOON:003:1,2010-12-09T00:00:00Z,26.8015,-97.4706,0.0,3.6,23.0,4.1,'11111222,11111222,11111222' 
TCOON,ioos:station:TCOON:003:1,2010-12-09T01:00:00Z,26.8015,-97.4706,0.0,2.4,22.0,2.5,'11111222,11111222,11111222' 
TCOON,ioos:station:TCOON:003:1,2010-12-09T02:00:00Z,26.8015,-97.4706,0.0,2.1,16.0,2.3,'11111222,11111222,11111222' 
TCOON,ioos:station:TCOON:003:1,2010-12-09T03:00:00Z,26.8015,-97.4706,0.0,2.2,356.0,2.6,'11111222,11111222,11111222' 
TCOON,ioos:station:TCOON:003:1,2010-12-09T04:00:00Z,26.8015,-97.4706,0.0,1.1,310.0,1.3,'11111222,11111222,11111222' 
TCOON,ioos:station:TCOON:003:1,2010-12-09T05:00:00Z,26.8015,-97.4706,0.0,1.4,264.0,1.6,'11111222,11111222,11111222' 
TCOON,ioos:station:TCOON:003:1,2010-12-09T06:00:00Z,26.8015,-97.4706,0.0,2.1,299.0,2.5,'11111222,11111222,11111222' 
TCOON,ioos:station:TCOON:003:1,2010-12-09T07:00:00Z,26.8015,-97.4706,0.0,2.9,288.0,3.3,'11111222,11111222,11111222' 
TCOON,ioos:station:TCOON:003:1,2010-12-09T08:00:00Z,26.8015,-97.4706,0.0,2.2,279.0,2.5,'11111222,11111222,11111222' 
TCOON,ioos:station:TCOON:003:1,2010-12-09T09:00:00Z,26.8015,-97.4706,0.0,2.7,281.0,3.3,'11111222,11111222,11111222' 
TCOON,ioos:station:TCOON:003:1,2010-12-09T10:00:00Z,26.8015,-97.4706,0.0,1.8,279.0,2.2,'11111222,11111222,11111222' 
TCOON,ioos:station:TCOON:003:1,2010-12-09T11:00:00Z,26.8015,-97.4706,0.0,2.3,266.0,2.7,'11111222,11111222,11111222' 
TCOON,ioos:station:TCOON:003:1,2010-12-09T12:00:00Z,26.8015,-97.4706,0.0,2.3,297.0,2.7,'11111222,11111222,11111222' 
TCOON,ioos:station:TCOON:003:1,2010-12-09T13:00:00Z,26.8015,-97.4706,0.0,3.2,283.0,3.7,'11111222,11111222,11111222' 